Cherry Point, NC

11:36 PM EDT on March 24, 2017 (GMT -0400)
Cherry Point Marine Corps Air Station

Weather History for KNKT - February, 2013

Change the Weather History Date:

Saturday, February 16, 2013

  Actual Average Record
Temperature  
Mean Temperature 42 °F -  
Max Temperature 48 °F 56 °F 77 °F (2001)
Min Temperature 35 °F 35 °F 21 °F (2015)
Degree Days  
Heating Degree Days 24    
Moisture  
Dew Point 36 °F    
Average Humidity 82    
Maximum Humidity 89    
Minimum Humidity 66    
Precipitation  
Precipitation 0.23 in - - ()
Sea Level Pressure  
Sea Level Pressure 29.83 in    
Wind  
Wind Speed 8 mph ()    
Max Wind Speed 21 mph    
Max Gust Speed 31 mph    
Visibility 7.7 miles    
Events Rain , Snow    
Averages and records for this station are not official NWS values.
T = Trace of Precipitation, MM = Missing Value Source: Averaged Metar Reports

Daily Weather History Graph

Daily Weather History Graph

Search for Another Location

Airport or City:

Trip Planner

Search our weather history database for the weather conditions in past years. The results will help you decide how hot, cold, wet, or windy it might be!

Date:

Astronomy

Feb. 16, 2013 Rise Set
Actual Time 6:52 AM EST 5:51 PM EST
Civil Twilight 6:26 AM EST 6:17 PM EST
Nautical Twilight 5:56 AM EST 6:47 PM EST
Astronomical Twilight 5:27 AM EST 7:16 PM EST
Moon 10:20 AM EST (2/16) No Moon Set
Length of Visible Light 11h 51m
Length of Day
10h 59m
Waxing Crescent, 39% of the Moon is Illuminated
Feb 16
Waxing Crescent
Feb 17
First Quarter
Feb 25
Full
Mar 4
Last Quarter
Mar 11
New

Hourly Weather History & Observations

Time (EST) Temp. Windchill Dew Point Humidity Pressure Visibility Wind Dir Wind Speed Gust Speed Precip Events Conditions
12:54 AM 37.9 °F - 34.0 °F 86% 29.96 in 8.0 mi Calm Calm - N/A   Clear
1:54 AM 37.0 °F - 34.0 °F 89% 29.93 in 7.0 mi Calm Calm - N/A   Clear
2:54 AM 36.0 °F - 32.0 °F 86% 29.92 in 10.0 mi Calm Calm - N/A   Clear
3:54 AM 42.1 °F 38.4 °F 37.0 °F 82% 29.92 in 10.0 mi WNW 5.8 mph - N/A   Clear
4:54 AM 41.0 °F 38.0 °F 36.0 °F 82% 29.90 in 9.0 mi WNW 4.6 mph - N/A   Clear
5:54 AM 41.0 °F 37.1 °F 35.1 °F 79% 29.88 in 10.0 mi NNW 5.8 mph - N/A   Clear
6:54 AM 41.0 °F 34.7 °F 35.1 °F 79% 29.89 in 10.0 mi North 10.4 mph - N/A   Clear
7:54 AM 42.1 °F 36.6 °F 36.0 °F 79% 29.89 in 10.0 mi NNE 9.2 mph - N/A   Mostly Cloudy
8:54 AM 43.0 °F 36.8 °F 37.9 °F 82% 29.88 in 9.0 mi NNE 11.5 mph - N/A   Mostly Cloudy
9:54 AM 45.0 °F 39.3 °F 39.9 °F 82% 29.87 in 10.0 mi NNE 11.5 mph - N/A   Overcast
10:01 AM 44.6 °F 38.1 °F 39.2 °F 81% 29.88 in 10.0 mi NE 13.8 mph - N/A   Mostly Cloudy
10:54 AM 46.9 °F - 39.9 °F 77% 29.86 in 10.0 mi ENE 10.4 mph - N/A   Mostly Cloudy
11:01 AM 46.4 °F 41.1 °F 39.2 °F 76% 29.86 in 10.0 mi NE 11.5 mph - N/A   Overcast
11:54 AM 46.9 °F - 39.0 °F 74% 29.85 in 10.0 mi NNE 11.5 mph - N/A   Overcast
12:01 PM 46.4 °F 41.5 °F 39.2 °F 76% 29.85 in 10.0 mi NNE 10.4 mph - N/A   Overcast
12:54 PM 48.0 °F - 39.0 °F 71% 29.80 in 10.0 mi NE 8.1 mph - N/A   Overcast
1:54 PM 48.9 °F - 39.0 °F 69% 29.75 in 10.0 mi NE 8.1 mph - N/A   Overcast
2:54 PM 48.9 °F - 39.0 °F 69% 29.72 in 10.0 mi NNE 9.2 mph - N/A   Overcast
3:54 PM 48.9 °F - 37.9 °F 66% 29.70 in 6.0 mi NNE 6.9 mph - 0.00 in Rain Light Rain
4:22 PM 44.6 °F 37.8 °F 39.2 °F 81% 29.72 in 2.5 mi NNW 15.0 mph - 0.04 in Rain Light Rain
4:27 PM 44.6 °F 37.2 °F 41.0 °F 87% 29.72 in 4.0 mi NNW 17.3 mph 25.3 mph 0.04 in Rain Light Rain
4:39 PM 42.8 °F 34.0 °F 39.2 °F 87% 29.72 in 2.5 mi NNW 20.7 mph 28.8 mph 0.05 in Rain Light Rain
4:54 PM 42.1 °F 33.9 °F 37.9 °F 85% 29.72 in 2.5 mi NNW 17.3 mph - 0.06 in Rain Light Rain
5:38 PM 37.4 °F 27.5 °F 33.8 °F 87% 29.78 in 2.5 mi NW 18.4 mph 31.1 mph 0.04 in Rain Light Rain
5:54 PM 37.0 °F 27.4 °F 34.0 °F 89% 29.78 in 2.5 mi NW 17.3 mph - 0.06 in Rain Rain
6:54 PM 36.0 °F 26.3 °F 33.1 °F 89% 29.78 in 2.5 mi NW 16.1 mph - 0.06 in Rain , Snow Light Rain
7:54 PM 36.0 °F 27.1 °F 33.1 °F 89% 29.78 in 2.5 mi NNW 13.8 mph - 0.04 in Snow Light Snow
8:54 PM 36.0 °F 27.1 °F 33.1 °F 89% 29.79 in 9.0 mi NNW 13.8 mph - 0.01 in   Drizzle
9:54 PM 35.1 °F 26.4 °F 32.0 °F 89% 29.81 in 10.0 mi NW 12.7 mph - 0.00 in   Drizzle
10:17 PM 35.6 °F 27.5 °F 32.0 °F 87% 29.82 in 9.0 mi NW 11.5 mph - 0.00 in Snow Light Snow
10:54 PM 35.1 °F 26.9 °F 32.0 °F 89% 29.83 in 9.0 mi NW 11.5 mph - 0.00 in Snow Light Snow
11:03 PM 35.6 °F 26.2 °F 30.2 °F 81% 29.84 in 9.0 mi NW 15.0 mph 21.9 mph 0.00 in Snow Light Snow
11:13 PM 35.6 °F 26.2 °F 30.2 °F 81% 29.84 in 8.0 mi NW 15.0 mph 20.7 mph 0.00 in Snow Light Snow
11:54 PM 35.1 °F 25.5 °F 30.9 °F 85% 29.84 in 6.0 mi NW 15.0 mph 20.7 mph 0.00 in Snow Light Snow